Location: *
(41.7492°S, 135.4150°W)
Time: 19:59:56
(UTC+00:00)

AO-7 - Visible Passes

Search period start: 29 June 2022 00:00
Search period end: 09 July 2022 00:00
Orbit: 1439 x 1459 km, 101.9° (Epoch: 29 June)

Date Brightness Start Highest point End Pass type
(mag) Time Alt. Az. Time Alt. Az. Time Alt. Az.
29 Jun ? 02:53:58 10° S 03:01:35 40° WSW 03:09:08 10° NW visible
30 Jun ? 03:47:50 10° S 03:53:36 21° SW 03:59:21 10° W visible
30 Jun ? 12:52:36 10° N 12:53:29 14° N 12:53:29 14° N visible
01 Jul ? 02:46:51 10° S 02:54:37 44° WSW 03:02:20 10° NW visible
01 Jul ? 04:43:54 10° SSW 04:45:08 10° SW 04:46:22 10° SW visible
01 Jul ? 13:47:08 10° NNW 13:47:20 11° NNW 13:47:20 11° NNW visible
02 Jul ? 03:40:37 10° S 03:46:43 23° SW 03:52:47 10° W visible
02 Jul ? 12:45:28 10° N 12:46:17 14° N 12:46:17 14° N visible
03 Jul ? 02:39:44 10° S 02:47:39 48° WSW 02:55:30 10° NW visible
03 Jul ? 04:35:51 10° SSW 04:38:18 12° SW 04:40:45 10° WSW visible
03 Jul ? 13:39:45 10° NNW 13:40:08 11° NNW 13:40:08 11° NNW visible
04 Jul ? 03:33:25 10° S 03:39:48 25° SW 03:46:10 10° WNW visible
04 Jul ? 12:38:22 10° NNE 12:39:04 13° N 12:39:04 13° N visible
05 Jul ? 02:32:37 10° S 02:40:40 53° WSW 02:48:37 10° NW visible
05 Jul ? 04:28:14 10° SSW 04:31:28 13° SW 04:34:41 10° WSW visible
05 Jul ? 13:32:24 10° NNW 13:32:56 12° NNW 13:32:56 12° NNW visible
06 Jul ? 03:26:13 10° S 03:32:53 28° SW 03:39:30 10° WNW visible
06 Jul ? 12:31:18 10° NNE 12:31:53 13° NNE 12:31:53 13° NNE visible
07 Jul ? 02:25:31 10° S 02:33:41 58° WSW 02:41:44 10° NW visible
07 Jul ? 04:20:46 10° SSW 04:24:37 14° SW 04:28:28 10° WSW visible
07 Jul ? 13:25:06 10° NNW 13:25:45 12° NNW 13:25:45 12° NNW visible
08 Jul ? 03:19:03 10° S 03:25:57 30° SW 03:32:49 10° WNW visible
08 Jul ? 12:24:14 10° NNE 12:24:42 12° NNE 12:24:42 12° NNE visible
